Shenzhou 21

operational
NORAD ID: 66264 Int'l Des: 2025-246 Owner: CMSEO Country: CN
LEOCIRCULAR

Shenzhou 21について

説明を読み込み中...

リアルタイム位置

3D地球を読み込み中...

次回通過

高度履歴

Altitude vs Time

uPlot chart will show altitude changes over time

軌道要素

1 66264U 25246B 25308.12924882 .01014878 75815-5 64608-3 0 9994
2 66264 41.4657 249.8168 0095863 151.7950 208.8142 16.06762742 567
Epoch: Nov 4, 2025 • Age: 18 hours

現在のステータス

高度 230.7 km
速度 7.79 km/s
衛星直下点 41.63°N, 30.27°W
打ち上げ日 Oct 31, 2025
運用期間 4 days
タイプ other

技術仕様

分類 Payload
質量 3258.00 kg
乾燥質量 3258.00 kg
総質量 8100.00 kg
長さ 9.30 m
直径 3.20 m
スパン 17.00 m
形状 Cyl + 2 pan
製造者 CALT
バスタイプ Shenzhou
フェーズステータス Docked
所有者/国 CMSEO/CN

大規模コンステレーション

Loading constellations...